Theta_e
342 346 350 353 351 355 353 357 353 350 348 331 336 341 344 354 351 352 351 350 350 348 346 343 341 342 347 345 345 346 345 347 346 342 341 348 350 348 348 348 350 351 351 351 350 348 349 347 348 349 348 349 348 347 347 348 348 349 349 349 351 352 353 351 352 351 347 343 344 346 345 348 350 352 353 353 353 353 353 353 353 352 352 352 352 353 353 353 353 352 353 352 352 350 348 348 348
349 347 349 352 352 356 356 360 350 335 335 330 337 343 346 355 349 350 352 351 348 343 342 341 342 346 348 345 343 344 346 344 343 344 344 347 348 348 348 348 350 350 350 350 349 349 351 347 346 349 348 348 348 347 346 347 348 349 350 350 352 353 352 352 353 351 347 343 342 344 346 350 352 353 354 353 353 353 353 353 353 352 353 353 353 354 354 353 352 352 352 352 351 350 348 346 345
348 349 352 352 355 357 357 361 346 326 327 330 337 348 353 353 351 353 352 349 343 340 342 343 346 348 347 346 345 345 346 342 342 341 343 346 347 347 348 349 349 349 349 350 349 350 352 347 346 349 349 348 347 347 347 347 348 349 350 351 352 353 353 353 353 350 349 346 343 344 348 351 352 353 353 353 353 353 353 354 354 353 353 353 353 353 353 353 352 352 352 352 349 348 347 346 344
349 352 353 354 357 358 359 358 346 327 325 329 334 350 357 352 353 353 350 346 342 340 344 345 347 348 348 348 345 346 346 343 343 342 343 347 347 347 349 350 350 351 350 351 351 352 353 347 347 348 349 348 347 348 349 349 349 350 351 351 352 352 352 353 352 350 349 347 345 347 349 351 351 352 352 352 353 353 353 354 353 352 353 353 353 352 353 353 352 351 350 351 348 347 347 347 346
352 355 355 356 360 360 362 355 344 332 328 332 336 351 356 351 353 351 349 344 342 343 346 347 345 347 347 347 345 345 344 342 345 345 346 349 348 348 350 352 352 352 351 352 351 353 352 348 348 349 349 348 348 350 352 351 350 351 352 352 351 352 351 351 351 350 350 348 347 348 350 351 351 352 352 352 353 354 354 353 352 351 352 353 352 352 352 352 351 351 350 350 348 348 347 347 346
355 357 356 357 359 358 357 345 337 334 340 347 343 352 354 351 353 349 347 343 343 344 347 348 345 345 345 346 345 344 343 343 345 346 347 348 348 349 351 352 352 352 351 351 351 353 351 348 349 349 350 348 348 350 351 351 349 350 351 352 351 351 350 350 350 350 351 349 349 350 351 351 351 352 353 352 353 353 354 353 352 351 352 351 350 350 350 351 351 350 350 350 349 348 347 347 346
357 358 357 359 360 358 353 339 334 336 349 356 348 354 355 353 353 349 348 345 344 346 347 347 343 345 346 345 346 346 346 345 346 347 347 348 349 350 351 351 350 350 350 350 351 354 350 348 350 350 351 349 349 350 350 349 348 350 351 351 352 352 350 349 351 351 352 351 351 351 351 352 352 353 353 353 352 353 353 353 352 351 350 349 349 349 349 350 350 349 350 350 349 348 347 347 345
356 357 357 361 362 358 350 341 342 344 349 355 353 355 356 354 353 350 349 346 346 347 347 345 343 346 347 345 347 348 347 347 347 348 348 349 349 349 349 349 349 349 349 349 352 354 350 348 350 350 351 350 350 351 349 349 349 350 351 351 352 353 351 350 351 351 352 352 352 352 352 352 352 353 353 353 352 352 353 352 351 350 349 348 349 349 349 349 349 348 349 350 349 349 347 346 344
357 357 359 361 360 354 347 344 347 350 352 354 356 357 356 354 352 351 350 348 347 347 348 344 344 348 347 346 347 346 347 349 348 348 349 348 349 348 348 348 348 348 348 350 352 354 351 350 350 348 349 350 351 350 349 350 350 351 351 351 352 353 351 351 351 351 350 350 351 352 351 352 352 352 353 354 352 352 352 352 351 348 348 348 349 349 349 349 348 349 349 349 349 349 347 346 345
358 357 360 361 358 350 341 342 346 350 354 353 357 358 356 354 353 353 352 351 347 348 348 344 344 346 345 346 346 346 348 348 348 348 348 348 348 347 347 348 348 349 349 352 353 353 352 351 351 350 350 351 351 350 349 350 350 351 351 351 352 352 351 351 351 351 350 349 348 348 349 350 351 350 352 353 352 352 351 351 350 348 348 349 349 348 348 348 349 349 348 347 348 348 346 346 344
360 356 359 356 350 345 338 338 346 351 354 354 357 357 355 355 353 353 353 352 349 348 346 345 346 345 345 346 346 347 348 347 348 348 348 348 347 345 346 349 349 350 351 353 352 353 353 351 351 351 350 350 350 349 348 348 349 350 350 351 351 350 351 351 351 350 349 348 346 347 348 349 349 349 350 352 352 351 352 352 351 349 349 349 348 348 348 348 348 348 347 347 348 348 346 345 344
361 358 360 356 348 346 343 341 346 352 354 353 356 356 354 354 353 353 354 351 349 347 346 347 346 343 344 346 347 348 348 348 347 348 348 347 345 345 347 349 350 351 352 352 351 352 353 351 351 350 350 350 348 349 348 347 349 349 350 350 349 350 350 350 350 349 348 348 348 348 349 348 348 349 349 351 351 351 351 351 351 350 349 349 349 349 349 349 347 348 348 348 349 348 346 346 346
360 358 359 361 358 353 348 346 350 353 353 353 355 355 353 352 353 352 351 350 348 348 346 346 343 341 343 345 347 346 348 348 348 347 347 345 344 346 348 350 350 351 352 351 351 352 352 351 352 350 349 348 347 348 347 347 348 348 349 349 348 349 350 350 350 348 348 349 348 349 348 348 348 348 349 350 350 351 351 350 350 350 349 349 349 348 349 349 347 347 347 348 349 347 347 349 348
357 358 359 360 359 353 348 347 350 349 347 355 356 353 353 352 353 350 350 351 351 350 346 344 341 343 345 345 346 343 346 348 347 346 345 345 346 348 350 350 350 351 351 351 351 351 352 351 352 350 349 348 347 348 347 347 347 347 348 348 348 350 350 350 349 349 349 348 347 348 348 349 349 349 349 349 349 349 350 350 351 350 349 349 350 349 348 350 348 346 347 349 350 347 348 349 348
354 356 360 356 349 347 348 348 349 346 347 356 355 352 355 352 351 350 351 352 352 347 344 345 342 344 343 343 345 344 347 347 345 345 346 347 348 349 350 350 350 350 350 351 351 351 351 351 351 350 350 349 348 349 348 347 347 347 348 348 349 349 350 349 348 349 349 347 348 349 348 347 348 349 348 348 348 348 348 349 351 351 350 350 350 349 347 348 348 348 350 351 350 348 348 348 348
353 355 359 353 344 343 348 351 348 344 348 355 353 352 354 352 350 351 353 351 348 345 344 345 341 344 341 340 343 345 347 345 344 346 347 349 349 349 349 349 350 350 350 351 351 351 351 351 351 350 350 350 349 348 348 348 348 348 348 348 349 349 349 349 348 349 348 346 348 349 348 346 348 349 349 349 349 347 347 349 350 351 351 350 347 344 344 345 346 348 349 350 350 348 347 346 346
353 357 357 349 345 345 349 353 347 344 351 357 353 353 355 354 351 351 350 348 346 346 346 344 342 343 341 341 345 345 346 344 346 347 348 349 348 348 348 349 349 349 351 352 352 351 351 351 351 351 350 350 349 347 347 349 348 348 349 349 349 349 350 349 349 348 347 348 348 350 350 347 348 347 348 349 349 348 348 349 349 350 348 346 343 342 342 342 343 345 346 347 347 347 346 345 344
355 361 354 344 348 352 353 357 353 351 355 356 354 353 355 355 352 350 350 349 347 347 346 345 345 344 344 347 346 345 345 346 348 348 348 348 348 347 347 348 348 350 351 352 352 351 352 351 351 350 350 349 348 348 348 349 348 348 349 350 349 348 349 349 349 348 349 349 348 351 352 350 349 347 347 347 347 348 348 348 349 348 345 341 340 340 340 340 341 344 344 344 344 346 347 347 346
357 361 353 347 356 359 359 362 358 355 354 354 354 352 353 353 352 351 351 350 348 346 346 347 346 345 347 347 346 347 348 348 348 347 347 347 347 347 347 348 348 350 351 351 351 351 351 350 349 349 349 349 349 348 348 348 348 349 349 349 349 348 349 350 351 351 351 350 351 353 353 352 351 349 348 347 346 347 346 347 347 344 339 336 336 336 338 339 342 342 343 344 344 346 347 347 347
356 359 357 356 360 359 360 363 362 358 354 354 354 352 352 351 349 350 351 350 348 347 346 347 346 345 345 346 348 348 349 349 348 347 347 346 347 347 347 348 348 350 350 350 351 351 350 349 349 349 349 349 349 347 347 348 348 349 348 348 349 350 349 350 351 352 352 352 353 353 353 353 352 350 350 349 347 347 346 346 344 340 335 333 337 339 340 341 342 342 343 345 345 346 346 345 346
355 357 360 359 358 358 360 362 363 358 352 353 353 354 353 350 348 350 350 349 349 347 344 345 345 345 346 346 348 349 349 349 348 348 348 347 347 347 347 348 349 350 349 349 351 351 349 350 349 350 349 349 349 348 348 348 349 349 348 349 349 349 349 348 349 352 352 352 353 352 352 354 352 351 351 351 351 349 348 346 343 343 341 340 344 346 344 344 344 344 344 345 345 345 345 346 346
356 356 358 359 356 359 362 361 362 357 352 353 352 354 353 350 350 350 349 348 348 345 343 344 344 345 346 346 347 349 348 348 349 348 348 347 347 347 347 348 349 349 349 349 351 351 350 351 350 350 350 350 349 349 350 349 350 350 349 349 350 349 348 348 349 351 353 353 352 352 353 354 353 352 352 351 350 348 346 345 344 346 346 346 347 346 346 346 345 344 344 345 345 344 345 347 347
355 356 358 360 359 361 363 362 362 357 353 354 352 353 351 351 352 350 348 349 349 345 342 344 345 346 347 347 348 346 346 348 349 348 348 347 347 347 347 348 349 349 349 349 350 350 351 352 351 350 351 351 350 349 350 350 350 351 349 349 350 350 349 349 350 352 353 353 352 352 353 352 351 350 350 349 348 346 345 344 345 345 345 347 346 345 346 345 345 345 345 346 346 345 345 347 347
353 356 358 361 361 361 361 361 360 355 354 354 353 352 352 353 354 350 349 350 349 345 344 346 348 349 348 347 346 346 347 348 348 347 347 347 347 347 347 348 349 349 350 349 349 349 350 352 352 351 352 351 351 350 350 350 350 351 350 351 351 351 351 351 351 352 353 353 352 352 351 350 348 348 348 348 346 345 345 344 345 345 345 347 347 346 346 346 346 346 347 348 348 348 347 347 347
355 358 358 360 361 361 358 357 358 356 355 355 353 353 354 353 352 351 350 348 346 344 345 348 348 348 347 345 344 346 348 348 348 347 347 347 347 346 347 347 349 349 349 349 349 349 349 350 351 352 352 352 351 351 351 351 350 351 352 352 352 352 352 352 352 352 352 352 351 351 350 348 347 347 346 346 346 346 346 345 345 346 347 348 347 347 347 347 347 348 349 349 349 348 346 348 348
357 357 359 360 360 359 358 358 358 358 356 354 355 356 356 352 350 353 352 348 345 345 345 346 347 346 346 344 344 346 348 349 348 347 347 347 347 347 347 348 349 350 349 349 350 349 349 349 350 351 352 351 350 351 351 352 351 352 352 351 351 351 351 351 351 351 350 350 350 350 351 349 346 346 346 346 347 348 348 348 348 348 348 348 347 348 348 348 348 348 349 349 349 350 348 349 349
356 357 358 359 360 358 358 358 357 358 358 356 356 357 355 351 352 352 351 347 344 345 346 347 346 346 345 344 345 348 349 350 348 348 348 347 347 347 347 348 349 349 349 350 350 349 349 349 349 350 351 351 349 350 351 351 352 352 351 350 350 350 350 350 349 349 349 349 349 350 351 350 347 345 347 348 350 351 350 350 349 348 348 348 348 348 349 349 349 349 350 350 351 351 349 349 349
356 357 357 358 358 359 358 356 356 359 358 357 357 357 354 351 353 353 350 347 345 346 347 346 346 345 346 344 345 348 349 350 349 348 348 348 348 347 346 348 349 349 349 350 350 350 349 349 349 349 350 350 349 350 350 350 351 351 350 350 349 350 350 349 348 349 349 350 350 350 351 351 349 348 351 352 352 352 351 350 349 349 348 349 350 349 349 349 349 349 351 352 351 350 349 349 349
357 357 359 359 358 359 358 354 356 360 357 357 358 354 354 355 353 353 350 347 346 347 347 346 346 345 345 345 345 347 349 350 349 349 349 349 348 347 347 347 348 350 350 350 350 350 349 349 349 349 350 350 349 349 350 350 350 350 350 349 350 350 350 349 348 350 349 350 351 350 351 351 351 351 354 354 352 352 351 350 349 349 350 351 352 351 350 349 349 349 350 351 351 350 349 349 349
359 358 359 359 357 360 360 354 356 360 356 358 358 347 349 357 354 353 350 347 348 347 346 345 346 345 344 345 345 346 348 350 350 350 350 350 350 348 346 347 348 350 350 350 350 350 349 349 349 350 350 349 349 349 349 350 350 350 349 349 350 350 349 349 349 350 350 350 350 350 350 351 352 353 354 354 353 351 350 351 350 350 353 354 353 351 349 349 349 349 349 349 350 350 349 349 348
359 359 360 356 353 357 361 356 357 360 354 357 359 347 349 358 355 353 351 348 348 347 346 344 345 345 344 345 345 346 347 349 350 349 350 350 350 349 347 347 348 349 350 350 349 349 349 349 348 349 349 349 349 350 349 350 350 350 349 349 350 350 349 349 349 349 350 349 349 350 351 352 353 354 355 355 354 352 351 352 353 353 355 356 354 352 350 349 349 349 349 350 350 350 348 348 348
358 354 351 350 350 355 362 357 358 360 355 357 357 349 352 359 354 353 352 349 349 347 346 344 344 345 343 344 345 345 345 348 350 349 350 351 350 349 348 347 348 349 349 349 350 350 350 349 348 349 349 349 350 350 350 350 350 350 350 350 351 351 350 348 348 347 348 348 348 349 352 353 354 354 355 355 355 353 352 352 353 354 356 356 355 355 352 350 350 350 351 352 351 351 348 347 347
354 350 341 343 348 353 360 358 359 359 357 358 357 352 355 357 353 353 352 351 351 349 347 345 345 345 343 344 344 344 345 346 348 349 350 351 351 350 349 348 348 349 349 349 350 350 350 349 348 349 349 349 350 350 350 350 350 351 351 350 350 350 349 348 348 347 347 348 348 349 352 354 354 354 355 355 355 353 353 352 353 354 356 357 356 355 353 351 350 350 353 354 352 352 349 347 347
346 346 340 344 350 351 355 358 360 358 358 359 358 357 357 354 353 353 352 353 352 350 348 346 345 345 344 343 343 345 345 345 347 350 350 351 351 351 350 349 348 349 350 349 350 350 350 349 349 349 349 350 350 350 350 350 351 351 350 350 350 349 347 347 347 348 347 348 349 350 352 354 354 355 355 355 356 354 353 353 354 355 356 357 357 356 354 353 353 351 352 355 354 353 350 348 348
340 342 337 341 347 350 353 357 359 359 360 360 358 359 359 354 352 353 352 353 353 350 349 347 346 345 344 343 343 344 346 344 347 350 349 350 351 351 351 350 349 349 349 350 350 350 349 349 350 350 349 350 350 351 350 351 351 351 350 349 350 350 348 347 348 348 349 348 350 351 352 354 354 355 356 356 357 355 353 354 355 356 357 358 358 357 355 354 356 356 355 356 356 353 351 350 349
345 346 341 341 346 350 356 358 359 359 360 362 359 359 361 355 353 353 352 353 353 351 349 349 348 346 344 343 343 345 345 344 346 349 348 350 351 351 352 351 350 349 349 350 352 352 351 350 351 351 351 350 350 351 351 350 350 350 350 348 349 350 349 349 349 349 350 350 351 352 353 354 355 356 357 357 358 356 354 354 356 357 357 358 358 357 356 357 359 360 358 358 357 354 352 349 349
351 350 346 347 348 350 359 362 359 358 360 362 362 361 361 356 353 353 352 353 353 351 351 350 348 347 344 342 343 344 345 345 346 348 348 349 351 351 352 351 351 350 350 351 352 352 352 351 351 351 351 351 350 350 350 350 350 350 349 347 347 348 349 349 349 349 350 351 354 354 354 355 356 358 359 358 358 357 356 356 357 358 358 358 358 358 358 359 360 361 360 359 356 354 352 349 348
352 349 345 345 346 350 358 361 359 358 360 361 362 362 360 356 353 351 351 353 352 351 351 350 348 348 345 342 344 345 345 346 346 348 349 349 351 350 351 352 351 351 352 352 352 352 351 351 351 351 351 352 351 350 350 350 350 349 347 346 345 346 348 348 348 349 350 352 354 356 356 356 358 360 359 359 360 358 356 356 357 359 359 358 359 359 359 360 361 361 360 360 357 354 352 350 349
351 346 345 345 345 351 355 358 360 358 358 360 361 360 359 358 354 351 351 352 351 351 351 351 348 348 345 343 345 345 345 346 345 346 349 349 350 351 351 352 351 351 352 352 352 352 352 351 352 352 352 351 352 351 352 351 351 349 347 346 345 345 347 348 349 350 350 351 352 355 358 358 358 358 358 358 358 357 357 357 357 357 359 359 360 361 360 361 361 360 359 359 358 354 351 350 349
348 342 344 347 348 350 350 354 361 358 357 361 362 361 359 359 357 352 352 352 351 352 351 351 349 347 346 342 344 344 344 347 345 344 347 349 350 351 351 352 351 351 352 351 351 352 352 352 353 353 353 352 352 353 353 352 352 352 351 349 347 347 348 349 351 351 351 352 352 353 356 357 357 357 357 356 356 358 358 358 357 357 358 359 359 360 359 359 359 359 358 359 360 357 352 351 350
344 344 345 345 345 347 349 355 361 359 358 360 361 355 351 353 360 356 352 351 352 352 351 351 351 349 346 342 343 344 344 345 345 343 345 348 350 351 352 352 351 350 351 350 350 351 351 353 355 354 353 352 352 354 354 353 353 353 353 351 351 351 350 350 350 349 350 352 352 352 354 355 356 356 356 357 357 359 359 359 358 358 359 358 358 358 358 357 357 358 358 358 359 358 356 353 351
338 342 341 341 341 345 351 356 357 350 349 355 357 348 344 349 358 358 354 354 354 353 352 351 351 350 348 345 343 343 343 344 344 344 345 347 348 350 352 352 352 350 350 350 349 350 350 352 355 355 354 353 352 353 354 353 353 352 352 352 351 351 350 349 348 348 349 350 350 352 353 354 356 356 356 357 358 359 360 361 360 359 358 358 358 357 357 356 356 357 358 358 359 359 359 357 353
334 340 337 339 341 343 348 352 347 339 341 354 356 347 344 348 354 358 357 356 357 355 353 351 351 350 349 348 345 343 343 343 343 345 345 346 347 349 352 352 351 351 350 350 349 349 350 352 355 355 355 354 353 353 354 353 353 352 352 351 349 349 349 348 348 348 348 349 350 352 353 354 355 355 356 358 359 361 361 362 361 359 358 358 358 357 357 355 355 357 358 359 359 359 360 360 356
333 341 339 340 342 343 347 346 342 341 345 352 355 349 342 341 348 358 358 356 358 356 354 353 350 350 349 348 346 343 343 343 343 344 345 347 348 348 350 350 350 350 350 351 350 349 351 353 355 355 355 355 353 354 355 353 353 353 353 351 349 348 347 347 349 350 350 350 351 352 352 354 356 355 356 357 360 360 360 361 361 360 358 358 357 357 357 356 356 358 357 358 357 358 360 360 359
334 340 340 344 346 346 349 344 339 341 341 338 345 347 339 337 345 356 358 355 357 357 355 353 351 350 350 348 346 343 343 343 342 343 344 347 348 348 348 349 348 349 350 351 350 350 351 354 356 356 356 356 355 355 355 353 353 354 353 352 350 349 347 348 350 350 351 352 352 352 353 355 356 357 356 357 358 359 358 359 360 360 359 359 357 356 357 357 358 359 358 358 358 358 358 359 360
338 340 341 344 346 346 351 348 338 339 338 332 337 342 335 335 345 352 353 352 355 358 355 353 351 349 349 348 345 343 343 343 342 343 345 346 346 347 348 348 348 348 349 351 351 350 351 354 357 357 357 356 355 356 355 354 354 355 354 352 352 351 350 350 351 352 354 355 353 353 354 355 356 356 357 357 357 357 356 357 359 359 359 358 357 358 358 358 358 358 359 359 358 358 358 358 359
338 338 340 341 345 348 349 347 341 337 335 331 335 340 335 334 341 348 352 353 354 356 354 353 352 349 349 349 346 344 343 343 343 342 344 345 345 347 347 348 349 348 349 350 351 351 351 353 357 357 357 356 356 356 356 354 354 354 354 353 353 353 351 352 353 354 355 356 354 354 355 355 355 356 356 357 356 355 356 357 358 359 359 359 359 358 358 357 358 357 358 359 359 359 359 358 358
337 339 340 339 339 341 339 340 339 335 331 332 337 342 337 332 337 346 354 355 352 353 355 354 353 349 348 349 347 345 343 342 343 342 343 344 346 347 347 348 350 349 350 351 351 352 352 353 355 357 357 357 357 356 355 355 354 354 354 353 353 353 352 352 354 354 355 355 353 354 356 357 356 356 355 355 356 355 356 358 359 359 360 360 359 358 359 358 357 357 358 359 360 360 359 359 358
338 339 339 338 335 332 332 332 332 331 331 335 339 342 338 332 337 349 354 353 352 352 352 353 353 351 348 348 348 347 344 342 342 342 342 343 346 348 347 348 350 351 352 352 351 351 352 353 355 357 358 357 357 356 355 355 354 354 354 353 353 352 353 353 354 355 354 354 354 354 356 357 357 357 355 354 354 354 356 358 360 361 362 362 361 361 361 360 359 359 359 359 358 360 360 360 360
334 333 334 337 334 329 331 330 327 330 331 334 340 342 335 331 340 355 355 354 354 352 352 351 351 352 350 348 348 347 346 343 342 343 342 343 346 349 348 349 351 352 352 352 352 352 352 354 356 357 358 358 358 357 356 355 355 355 355 354 353 353 353 353 354 354 354 355 355 355 355 355 355 355 354 354 354 355 355 357 359 361 362 364 363 362 361 361 363 361 359 359 358 359 360 361 360
333 335 337 334 329 327 332 332 330 332 331 333 340 338 328 329 345 356 353 354 354 352 353 351 350 351 351 348 348 348 347 344 342 342 342 344 348 350 350 350 352 353 352 352 351 352 353 355 356 357 358 359 358 357 356 356 356 355 356 355 354 354 353 352 353 354 355 355 355 356 356 356 355 355 355 356 356 356 355 356 358 360 362 364 364 363 360 361 364 361 360 361 358 357 360 361 360
333 337 332 329 330 327 326 328 331 333 331 332 335 331 330 340 352 354 352 353 353 354 354 351 350 351 349 349 350 349 348 345 343 343 343 345 348 350 350 350 352 352 352 352 352 353 354 356 357 358 358 358 359 358 357 356 356 356 356 356 355 355 354 353 353 355 355 355 356 356 356 356 355 355 357 357 358 358 357 357 358 359 361 362 362 363 360 360 363 362 361 362 359 357 359 361 360
332 332 326 330 336 330 324 324 331 333 332 331 328 326 333 342 347 351 353 353 354 355 354 352 351 350 350 350 351 351 350 347 345 344 344 346 348 351 351 350 351 351 352 352 352 354 355 357 358 358 358 357 358 358 357 357 356 356 357 357 356 355 354 352 352 353 354 355 355 356 355 355 356 356 357 357 358 358 358 358 358 359 361 360 360 361 360 361 362 361 360 363 361 358 358 360 360
332 327 327 333 334 331 329 327 331 333 331 328 324 324 328 330 338 351 354 355 356 356 355 355 352 350 351 350 351 352 352 350 347 345 346 349 350 350 350 350 350 350 351 352 353 354 356 357 357 357 357 357 357 358 357 356 357 356 356 356 356 355 354 352 350 351 352 354 355 356 355 355 355 355 356 356 357 358 359 359 359 358 359 360 360 360 359 362 363 360 360 362 362 360 358 359 360
333 329 331 332 325 324 326 326 331 332 328 326 323 322 325 327 337 350 353 356 359 356 356 356 353 351 351 350 351 352 353 352 349 347 347 349 351 351 351 351 350 349 351 352 353 354 356 357 356 355 355 356 355 356 356 355 356 356 355 355 355 354 354 353 350 350 351 352 354 355 354 354 354 354 356 357 357 357 358 359 359 358 358 358 359 359 359 362 363 360 360 360 360 362 362 361 360
333 331 332 330 325 324 326 327 329 328 328 329 323 320 327 336 344 351 354 357 359 357 358 356 354 353 350 349 351 352 353 352 349 348 347 349 351 352 352 352 351 350 352 353 353 354 355 355 355 354 353 354 354 355 355 355 356 355 355 355 355 355 354 354 353 351 351 351 352 353 354 354 354 354 355 357 356 356 356 357 358 357 356 357 358 358 358 361 362 361 360 359 359 362 364 363 360
328 326 326 327 325 325 326 325 324 323 325 327 321 321 333 347 352 356 358 357 357 359 359 357 354 354 351 349 350 352 354 353 351 351 349 350 351 351 351 352 352 352 353 353 354 355 354 354 355 355 353 353 354 354 354 355 355 355 355 355 355 356 355 354 353 352 351 351 351 352 353 353 354 354 355 355 355 355 355 355 356 355 355 356 357 359 358 359 361 362 361 360 360 363 364 362 360
329 327 325 326 325 322 321 322 321 319 320 322 319 321 335 350 352 354 357 357 358 358 358 357 355 353 352 350 349 351 353 353 352 350 349 350 351 350 350 351 353 353 353 355 355 356 356 355 356 356 355 354 354 353 354 355 356 355 355 355 355 355 355 355 353 352 351 350 349 351 352 352 353 354 355 354 354 354 354 355 355 354 355 355 358 360 359 358 359 361 361 360 359 361 363 361 360
Wind_Speed
10 8 7 4 3 3 4 4 2 3 2 4 5 5 6 7 9 10 11 9 7 6 5 9 10 6 2 3 4 5 7 5 4 2 4 7 12 12 9 11 12 12 13 12 12 12 10 11 11 10 11 11 12 12 14 14 13 13 13 12 11 11 11 11 11 11 13 13 13 14 15 16 15 14 15 16 16 17 17 17 17 17 17 17 17 17 17 17 17 17 17 17 17 17 17 17 17
8 6 6 4 4 3 1 2 2 4 4 5 6 6 8 7 9 11 10 7 7 8 9 10 8 4 2 3 4 6 9 10 8 7 8 13 14 11 10 11 11 12 12 11 11 11 9 9 10 10 11 10 11 11 12 12 12 13 12 11 11 11 11 11 11 12 13 13 14 14 14 14 13 13 15 17 16 17 17 16 17 17 17 17 17 16 16 16 16 17 16 16 16 16 16 17 17
8 6 3 3 4 4 1 1 2 3 5 5 7 6 7 8 10 10 8 8 11 13 11 9 7 4 2 4 5 5 7 8 11 11 10 14 12 10 12 11 12 12 11 11 10 10 9 8 9 10 10 10 11 11 11 12 11 12 12 11 11 10 11 12 12 13 13 13 13 14 14 12 12 14 15 16 16 16 17 16 16 16 16 16 16 16 16 16 16 16 16 15 15 16 16 16 16
6 4 2 2 3 4 3 3 2 1 5 5 7 7 7 10 12 10 9 10 13 13 10 8 6 2 2 6 5 6 8 9 11 11 10 10 10 13 13 12 12 11 11 11 10 10 9 9 9 9 9 9 10 11 11 12 12 12 11 10 10 10 12 12 13 14 14 13 13 13 13 11 13 15 15 15 15 15 16 16 16 16 16 16 16 16 16 16 16 16 15 14 15 15 15 15 15
4 2 1 2 2 1 3 2 1 1 4 5 7 7 9 12 12 11 10 11 12 11 8 5 6 5 5 8 5 4 8 8 9 10 11 11 13 15 14 13 12 11 11 10 10 10 10 9 9 9 8 8 9 11 12 12 11 11 10 9 9 10 12 12 13 14 14 14 13 13 12 11 13 15 15 15 15 14 15 15 16 15 16 16 15 15 15 16 16 16 15 14 15 15 15 15 14
3 2 2 2 1 1 3 2 1 4 5 4 8 8 10 12 12 13 11 12 11 9 6 3 7 9 7 8 8 7 6 7 9 9 11 14 15 15 14 13 11 11 11 10 10 10 11 10 8 8 7 7 8 9 10 10 10 11 10 9 9 11 13 13 14 14 13 14 13 13 13 12 13 14 15 15 15 14 14 15 15 15 15 16 16 16 15 15 15 15 15 14 15 16 15 15 14
3 3 3 3 1 2 3 2 3 6 5 4 8 9 10 12 11 13 12 11 10 8 5 4 8 9 7 5 7 9 6 7 9 9 12 15 15 15 13 11 11 11 10 10 9 10 11 10 9 8 7 7 7 7 8 9 11 12 11 10 9 11 13 14 14 13 13 13 13 14 13 13 13 14 14 15 15 14 14 14 14 14 16 17 17 16 15 15 15 16 15 15 16 16 15 14 14
3 3 2 2 1 2 2 3 4 5 6 6 9 10 11 12 11 11 11 9 9 8 6 6 7 7 7 5 6 8 8 9 11 13 15 16 15 13 11 11 11 11 10 10 9 10 10 10 9 9 8 7 7 8 8 9 10 12 11 10 9 10 12 12 12 12 12 12 13 13 13 14 14 13 13 14 15 14 14 14 14 14 16 17 16 15 15 15 15 16 16 15 15 15 15 14 14
4 3 1 1 2 2 2 4 5 5 8 8 9 10 10 10 9 9 9 7 8 8 7 6 3 5 9 9 9 7 8 11 13 15 15 15 14 12 10 10 10 11 11 9 10 10 9 9 8 9 8 7 7 7 9 9 9 11 10 10 10 10 11 11 12 12 11 12 14 14 14 14 13 13 13 13 14 14 14 14 14 14 15 15 15 15 15 15 15 15 15 16 15 14 15 14 14
4 3 1 2 3 3 3 5 5 6 8 8 9 10 9 8 8 8 7 7 8 8 7 5 5 8 10 11 9 6 9 12 14 15 14 14 13 11 10 9 10 11 10 9 10 10 9 8 8 8 7 7 7 7 9 9 9 10 9 9 10 10 10 10 11 11 11 13 14 14 14 13 13 13 13 13 14 14 14 14 14 14 14 14 15 15 14 14 15 15 16 16 15 15 14 13 13
2 3 1 2 4 3 3 5 6 7 8 8 9 8 6 6 7 7 7 8 7 8 8 6 8 11 11 10 7 7 9 11 13 14 14 13 12 10 10 10 9 9 9 9 9 10 9 8 8 8 8 8 7 8 8 8 9 9 9 9 9 10 10 9 10 12 12 13 14 14 14 14 13 13 13 13 14 14 14 13 14 14 13 14 15 14 13 13 14 15 16 15 15 15 13 13 12
2 3 2 1 3 3 4 6 7 8 8 8 8 6 4 6 6 7 7 8 8 8 8 5 8 9 10 10 6 8 10 11 12 13 13 12 11 10 9 10 9 9 9 9 10 11 9 8 8 8 9 7 6 8 8 9 9 10 10 9 10 10 11 11 11 13 14 13 14 14 13 14 13 14 15 14 14 14 14 14 13 13 13 14 14 14 13 13 13 15 15 15 16 14 12 12 12
2 1 2 1 1 3 5 6 7 7 7 7 8 6 4 5 5 6 6 7 8 7 7 6 8 8 8 9 7 9 10 10 11 12 12 11 10 9 9 9 9 8 8 9 10 10 9 8 8 8 8 5 5 7 8 9 10 11 11 10 11 11 12 13 12 13 14 14 15 13 13 14 13 14 15 15 14 14 14 14 13 12 13 13 13 13 13 13 13 14 14 14 14 12 11 11 11
3 2 2 2 2 4 6 6 7 6 6 7 8 7 5 4 4 5 6 8 7 6 8 7 8 8 9 9 7 8 9 12 12 12 11 10 10 9 9 9 9 9 8 9 10 10 8 8 8 7 5 3 5 7 8 9 10 11 11 10 11 11 13 14 13 13 13 15 15 13 13 14 14 13 13 14 15 15 14 14 13 12 12 13 13 12 12 12 11 13 14 13 11 10 10 10 10
3 2 2 2 4 5 5 5 8 6 6 9 8 7 6 5 4 4 5 6 7 7 7 7 5 5 9 9 7 9 12 14 12 12 11 11 10 10 10 10 9 9 9 10 10 10 8 8 8 7 5 3 4 7 8 9 10 11 11 11 11 11 13 14 15 14 14 16 16 14 13 13 14 13 13 14 15 15 15 13 14 13 12 12 12 12 11 11 11 12 12 10 9 9 10 10 11
3 3 3 3 5 5 4 5 8 6 6 9 9 8 8 6 4 4 3 3 8 7 4 6 3 2 7 9 10 15 16 15 13 12 12 11 10 10 10 9 9 9 9 10 9 10 9 8 8 7 7 5 4 6 8 8 9 10 11 11 12 13 14 15 15 15 16 16 16 15 14 13 14 14 13 13 13 14 14 13 13 13 12 11 10 10 10 10 10 10 10 9 9 9 10 11 11
2 4 4 3 4 4 5 6 6 6 8 9 10 9 8 8 4 4 3 4 9 8 5 6 4 3 8 12 17 20 17 15 14 12 12 10 9 9 9 8 8 9 9 10 9 10 10 9 8 7 7 6 6 7 8 8 9 10 11 11 13 14 15 16 16 16 17 16 16 16 15 14 13 14 13 13 12 12 13 12 13 12 10 9 9 9 9 9 9 9 10 10 9 9 9 10 12
3 3 3 3 4 3 4 4 3 7 10 10 10 9 8 9 7 5 5 6 8 8 8 9 9 10 14 18 20 20 17 16 14 12 11 9 8 8 8 7 7 9 10 10 10 10 9 9 8 7 7 6 6 6 7 8 9 11 12 12 13 14 15 15 15 16 16 15 16 16 15 14 13 13 13 13 12 12 12 12 12 10 8 8 8 8 9 9 9 10 10 9 9 10 9 8 9
2 2 2 2 5 4 3 3 3 5 10 10 10 9 7 9 9 7 6 8 9 9 10 11 13 14 16 19 19 18 16 15 13 11 10 8 7 7 7 7 7 8 9 10 10 10 9 9 8 7 7 7 6 6 7 8 9 11 12 13 13 13 14 15 15 14 14 14 13 13 13 13 13 14 13 11 11 11 11 12 10 8 7 8 9 9 9 10 10 9 9 9 9 9 8 7 7
1 2 2 4 6 6 5 3 3 3 10 11 9 9 7 8 8 6 5 8 8 8 10 10 13 16 16 17 17 17 15 13 12 9 9 8 6 6 6 7 7 8 8 10 11 10 9 9 8 8 8 8 8 8 9 10 10 11 13 13 13 13 13 14 14 13 13 13 11 11 11 12 13 15 15 12 10 10 11 11 9 8 8 10 11 10 10 10 9 9 9 9 7 7 6 6 6
2 3 3 5 2 5 6 3 3 3 9 11 9 9 8 8 6 6 6 7 6 6 9 9 13 17 17 16 16 16 14 13 11 9 8 8 6 6 6 6 7 8 9 10 11 10 10 9 9 8 8 8 9 10 10 10 11 12 13 13 13 13 14 14 14 12 13 12 11 10 11 10 11 13 14 13 11 10 11 10 8 8 8 9 10 8 8 8 8 7 7 7 6 6 6 6 6
2 2 5 5 1 3 5 3 2 4 8 9 10 9 9 8 6 6 4 3 4 6 8 9 13 16 16 16 16 15 13 12 11 9 8 8 7 6 7 7 8 8 8 10 11 11 10 10 9 8 8 9 10 11 11 11 12 12 12 14 13 13 14 15 14 12 12 11 10 10 10 9 10 10 11 11 11 10 11 10 9 9 8 8 8 8 7 7 7 6 6 6 5 6 6 6 5
2 2 4 4 2 2 4 3 2 5 8 10 10 8 9 8 7 6 3 6 4 6 9 11 13 16 17 16 15 13 12 11 10 9 8 8 8 7 7 8 8 9 8 10 11 11 11 11 10 9 9 9 11 12 11 11 11 12 12 13 13 13 14 14 13 12 11 10 9 9 8 9 9 10 10 10 10 10 10 9 9 9 9 8 7 7 7 6 6 6 6 6 6 6 6 6 5
4 1 3 3 3 2 3 3 1 4 8 8 7 7 9 9 7 6 4 7 6 8 10 12 15 16 16 15 13 12 12 11 10 9 8 7 7 7 7 8 8 9 9 10 10 11 12 11 11 11 10 10 11 12 11 10 10 12 12 12 13 13 13 13 13 12 12 10 9 8 8 9 9 10 10 10 10 10 10 9 9 9 8 8 7 7 7 6 6 6 6 6 6 6 6 6 6
3 2 3 2 2 3 4 3 2 4 6 6 7 8 8 7 7 7 6 8 9 10 11 13 15 15 14 13 13 12 11 10 10 9 7 7 7 8 7 8 8 9 10 10 10 11 12 12 12 12 11 10 11 12 11 11 11 12 12 12 13 13 13 13 13 12 11 10 9 8 8 9 9 10 10 10 10 10 9 9 9 8 8 7 6 6 6 6 6 7 6 6 7 6 6 7 6
1 2 2 2 3 4 6 6 4 3 4 5 8 8 7 6 7 7 7 8 10 11 12 13 14 14 12 12 12 11 10 10 10 9 7 7 8 8 7 8 8 8 10 10 10 11 11 12 12 12 11 10 11 11 11 11 11 11 11 12 13 12 13 13 13 12 11 10 9 9 8 8 9 10 10 10 10 9 9 8 8 8 7 6 6 6 6 6 6 6 6 6 7 6 6 7 6
1 1 2 2 1 4 7 9 2 2 3 3 8 8 7 7 5 5 7 8 11 11 12 13 14 13 11 11 11 10 10 9 9 9 8 8 8 8 8 8 8 9 10 10 10 11 11 12 12 12 11 11 11 11 11 12 11 11 11 12 12 12 13 13 12 11 10 10 9 9 9 9 9 10 10 9 9 8 8 7 7 7 7 6 5 6 6 6 5 6 6 6 6 5 6 6 5
0 2 4 2 3 2 7 11 2 0 2 2 6 8 7 7 3 5 10 10 11 12 12 13 13 11 11 11 10 9 9 9 9 8 8 8 8 8 8 8 9 10 10 10 10 11 12 12 12 12 12 11 11 11 12 12 12 11 11 11 11 11 12 11 11 11 10 10 10 9 9 8 9 10 9 8 8 7 7 7 6 6 6 6 5 5 5 5 5 5 5 5 5 5 5 6 5
2 4 3 5 6 3 9 12 3 2 2 3 4 8 7 8 5 7 11 10 11 11 11 13 12 11 10 10 9 7 8 9 8 8 8 8 7 8 9 8 9 9 10 11 11 12 12 12 12 12 12 12 11 11 11 11 11 11 10 10 10 10 10 10 10 10 10 10 9 9 9 9 9 8 7 7 6 7 6 6 6 6 5 5 5 4 4 4 4 4 4 4 5 4 5 5 4
3 4 3 5 6 3 10 11 5 4 1 4 2 6 7 7 6 9 11 11 12 11 11 11 11 10 10 9 8 7 8 9 8 8 8 8 7 8 9 9 9 9 10 11 12 12 12 11 11 11 12 12 11 11 11 11 10 10 10 10 9 9 8 9 9 10 10 9 9 9 10 9 8 7 6 5 5 6 6 5 5 5 4 4 4 3 3 3 3 3 3 3 4 4 5 5 5
3 1 2 4 4 2 7 9 8 9 3 3 3 3 5 8 8 10 10 11 12 11 11 11 10 10 10 9 8 8 8 9 9 9 9 8 8 8 10 10 9 10 10 11 12 13 12 11 11 11 12 12 11 11 11 10 10 9 9 9 8 8 8 8 9 9 9 9 10 9 9 8 7 6 5 4 4 4 4 5 4 4 4 4 4 3 2 3 3 3 3 3 4 4 4 4 5
3 2 2 3 4 2 6 8 8 8 5 3 4 2 5 8 9 10 10 10 11 10 11 11 11 11 10 9 9 8 9 10 10 9 9 9 8 8 10 11 10 10 11 12 13 12 13 12 11 12 12 12 11 11 11 10 9 9 9 8 8 8 8 8 9 9 10 10 10 9 8 7 6 5 4 3 3 3 3 4 4 4 4 3 3 3 2 2 2 3 3 3 4 4 4 4 5
4 2 2 2 5 5 5 6 4 4 7 5 4 2 3 5 9 10 10 10 10 9 10 11 11 11 10 9 8 8 9 10 9 10 10 9 8 9 10 11 10 10 11 12 13 13 13 13 12 13 12 12 11 11 11 10 9 9 8 8 8 8 8 9 9 9 10 9 9 9 8 6 5 5 4 2 2 2 3 3 4 4 3 3 3 3 2 2 2 2 3 3 3 3 3 4 4
1 2 1 1 4 7 7 6 4 4 6 6 3 1 1 3 8 10 10 11 11 9 10 11 10 10 10 9 9 9 8 9 9 10 11 9 9 9 10 11 11 11 11 12 13 12 13 13 12 13 12 11 11 11 10 9 9 9 8 9 8 8 9 9 9 9 9 9 8 8 7 6 5 4 3 2 1 2 2 3 4 4 3 3 3 3 3 3 2 2 2 3 3 3 3 3 4
3 2 1 2 3 6 7 7 7 7 6 6 5 2 1 3 7 10 10 11 11 9 9 10 10 9 9 9 9 9 9 9 9 11 12 10 10 10 10 11 12 12 11 12 12 12 12 12 12 12 12 11 11 10 10 9 9 9 9 9 9 8 8 9 9 8 8 8 8 8 7 5 4 3 2 2 1 2 3 3 3 3 3 3 3 3 3 3 3 3 3 3 3 2 2 3 3
3 2 2 1 4 4 5 7 7 8 6 5 6 3 2 4 7 9 10 11 10 9 9 8 9 9 9 9 9 9 10 10 11 12 12 11 10 10 10 11 12 12 12 12 12 12 12 12 13 13 12 12 11 10 9 9 9 9 9 10 10 9 9 9 8 8 8 7 8 7 6 4 4 3 3 2 2 2 3 3 3 3 3 3 3 3 4 3 4 4 3 4 3 2 1 1 2
1 1 1 3 6 3 4 7 7 7 5 4 5 4 4 4 5 8 9 10 10 10 10 9 9 9 9 10 10 10 10 10 12 13 12 11 10 10 10 11 12 12 12 13 13 13 13 13 13 13 12 12 12 10 9 9 10 10 10 11 11 10 9 9 8 7 7 7 7 6 6 5 4 4 3 3 2 2 3 3 3 3 2 3 3 4 4 4 4 4 3 3 2 2 1 1 2
2 1 2 2 5 5 5 7 7 5 3 3 4 4 6 6 5 7 9 11 11 11 11 11 11 10 9 10 11 11 10 9 11 13 12 12 11 11 10 10 12 13 13 14 13 13 13 12 13 13 12 12 12 11 10 9 10 10 10 10 10 10 10 9 8 7 7 7 7 6 6 5 5 4 3 3 2 2 2 2 2 2 3 3 3 3 3 3 3 4 4 3 2 2 1 2 2
4 2 2 1 3 5 5 8 9 5 2 3 5 5 5 6 6 7 9 10 10 10 11 10 11 11 9 10 10 11 11 9 10 12 13 13 12 12 11 10 11 13 13 14 13 13 13 12 12 12 12 12 12 11 10 9 9 9 9 9 8 9 9 8 7 7 6 6 7 6 5 5 5 4 3 3 2 2 2 2 2 3 3 2 2 2 2 2 3 4 4 4 3 1 2 3 2
4 2 1 2 3 3 4 6 9 6 3 4 6 4 4 6 6 7 9 9 9 10 11 9 10 10 10 10 10 11 12 10 10 11 13 13 13 13 12 11 11 12 13 14 14 14 14 13 13 13 12 12 12 11 10 9 9 8 7 7 7 6 7 7 6 6 6 5 6 6 6 6 5 4 4 4 3 2 2 2 2 2 2 2 2 2 2 2 3 3 4 4 3 1 2 3 2
3 2 1 2 3 2 4 4 6 5 4 6 6 2 4 7 8 8 8 9 9 10 11 11 10 10 10 10 11 11 12 11 11 11 12 13 14 13 13 12 12 12 13 14 14 14 13 14 14 14 13 12 12 12 11 10 10 9 7 7 6 5 6 7 7 7 7 6 6 7 7 7 6 5 4 4 3 3 2 2 2 2 2 1 1 1 2 2 2 3 3 3 3 3 2 2 2
2 1 5 5 5 2 6 7 6 4 4 7 8 3 4 7 9 9 8 9 11 11 12 13 12 11 11 10 11 12 11 11 11 11 11 13 14 14 13 13 13 13 13 13 14 14 13 14 15 14 13 13 12 13 12 11 10 10 9 8 8 7 8 8 8 8 8 7 7 7 7 7 6 5 5 4 3 3 2 2 2 2 2 1 1 1 1 1 1 2 3 3 3 4 3 3 1
1 3 10 9 7 3 5 8 7 3 2 6 7 5 2 3 7 10 10 11 13 12 13 14 13 12 12 11 11 12 12 11 11 11 11 13 14 14 14 15 15 14 13 13 14 14 14 14 15 15 14 13 13 13 14 12 11 11 11 10 9 9 9 8 8 7 6 6 5 5 6 6 5 4 4 4 3 3 2 2 1 1 1 2 2 1 1 0 1 2 2 2 3 3 3 3 2
2 2 10 10 7 3 4 7 5 1 2 3 6 6 3 2 6 11 13 12 12 12 13 13 13 13 14 13 13 13 13 12 11 11 11 12 14 14 14 15 15 14 14 14 14 15 15 14 15 15 14 14 13 14 15 14 12 11 11 10 9 9 8 8 7 6 5 4 4 4 4 4 4 4 3 4 3 3 2 2 2 1 1 2 2 2 2 1 1 2 1 1 1 1 1 2 3
3 2 7 9 8 3 3 5 4 1 2 3 5 6 5 2 5 10 13 12 12 14 14 14 15 15 15 15 15 15 14 13 13 12 12 13 14 14 14 14 15 15 14 14 14 14 15 15 15 15 14 14 14 15 16 15 13 12 12 11 9 9 8 7 7 6 5 4 4 4 4 3 4 4 4 4 4 4 3 3 2 2 2 2 2 3 2 2 1 1 2 2 1 1 1 1 1
6 6 1 5 6 1 2 5 3 2 4 4 7 9 5 2 6 7 9 10 11 12 12 13 14 16 15 15 15 15 14 13 13 13 14 15 16 15 15 14 15 15 14 14 14 14 15 16 15 16 15 14 14 15 16 16 15 13 12 11 10 10 8 7 6 6 5 5 5 5 5 4 4 4 5 5 4 4 4 4 4 3 3 3 3 2 2 3 3 2 3 3 2 2 2 2 2
9 6 2 5 4 1 2 3 2 4 5 3 7 10 6 1 4 5 6 6 7 8 9 11 13 15 16 15 15 15 14 13 13 13 14 16 17 16 15 15 15 15 14 14 14 14 15 16 16 17 16 15 15 16 16 16 16 14 13 12 11 10 9 8 7 7 7 6 6 6 5 5 5 5 5 5 5 5 5 5 4 4 3 3 3 3 3 4 4 3 3 3 3 2 3 3 3
8 4 1 3 4 3 3 3 3 6 4 3 6 8 6 3 2 5 5 4 4 5 7 11 14 17 17 16 15 15 14 14 14 13 14 15 16 16 16 15 15 15 15 15 15 15 15 16 17 17 17 16 16 16 17 17 16 15 14 13 12 11 10 9 8 8 8 7 7 6 5 5 5 5 5 5 5 5 5 5 5 4 4 4 4 4 4 4 3 3 2 3 3 3 4 4 4
6 5 3 1 4 5 5 5 5 4 2 3 4 6 4 2 2 4 3 1 0 2 4 8 12 16 17 17 16 15 14 15 14 13 13 13 13 15 16 16 15 16 16 16 16 16 15 16 17 18 18 18 17 17 17 17 17 16 15 14 14 13 12 10 9 8 8 7 7 7 6 5 5 5 6 6 6 6 6 6 6 5 4 4 4 3 3 4 4 4 3 4 4 4 4 4 5
7 7 6 2 5 4 4 5 4 3 4 5 5 5 3 2 4 4 3 3 3 3 3 5 9 12 15 16 17 16 15 15 14 13 13 12 13 15 17 17 17 18 18 18 18 17 16 16 18 18 18 19 18 17 17 18 17 16 16 15 14 14 13 12 10 9 9 8 7 7 6 6 6 6 6 6 6 6 6 7 6 6 5 4 4 4 4 4 4 4 4 5 5 4 4 5 6
8 8 7 6 6 2 2 3 2 2 4 8 6 4 2 2 5 5 4 4 4 4 3 3 6 9 10 12 16 16 16 15 14 14 13 13 15 17 17 18 19 19 19 19 18 18 17 17 18 19 19 19 19 18 18 18 18 17 16 15 14 14 13 12 11 10 9 8 7 7 7 7 6 6 6 6 6 6 6 7 7 7 6 5 5 4 4 5 5 5 5 5 6 5 5 6 6
7 8 8 8 7 4 4 4 3 5 4 5 6 4 2 4 5 5 3 3 5 6 6 3 3 7 7 9 12 14 15 15 14 14 14 15 17 18 18 19 19 19 19 19 18 19 19 18 19 20 19 19 19 19 19 18 18 17 16 16 15 14 13 13 12 11 10 9 8 8 8 8 7 6 6 7 7 7 7 7 8 8 7 6 6 6 6 5 5 6 6 6 7 7 5 6 7
6 7 9 7 4 6 6 5 2 5 7 4 6 5 4 5 5 3 2 3 6 7 7 6 2 7 7 7 9 11 12 14 15 14 13 15 18 18 18 19 19 19 19 19 19 20 20 20 19 20 20 19 19 20 20 19 18 17 17 17 16 15 15 14 13 13 12 11 10 9 9 9 9 8 8 8 8 8 8 8 8 8 8 8 7 7 7 7 7 7 7 7 7 7 6 7 7
6 7 8 7 3 6 5 5 3 4 6 4 4 5 5 5 3 1 3 5 8 9 8 6 4 6 8 8 8 9 10 11 13 13 13 14 17 18 18 19 19 19 19 21 22 21 21 21 20 20 21 21 21 20 20 19 18 18 17 18 18 17 16 16 15 14 13 13 12 11 11 10 9 9 9 8 8 8 9 9 9 9 9 9 8 8 8 8 8 9 8 8 8 8 8 8 8
6 3 6 7 5 6 6 4 4 4 5 3 4 5 4 2 2 2 4 8 9 10 8 6 4 5 7 8 9 9 8 8 10 11 11 12 15 17 18 18 18 19 19 21 22 21 20 20 20 20 21 22 21 19 19 19 18 18 18 18 18 18 17 16 16 15 14 14 14 13 12 11 11 10 9 9 9 9 9 9 10 10 10 10 10 10 9 9 9 9 9 9 9 9 9 9 9
6 2 7 7 4 4 4 3 3 4 5 4 4 5 2 4 4 5 6 7 8 8 8 6 4 3 5 7 8 8 8 7 7 9 9 10 14 17 18 18 18 18 18 19 20 20 20 20 20 20 20 20 20 19 18 19 19 18 17 17 18 19 18 17 16 16 16 15 15 14 13 12 12 11 11 10 10 10 10 10 10 11 11 11 11 11 10 10 10 10 10 9 8 8 9 10 10
7 6 8 7 5 3 3 5 5 5 4 4 5 4 3 4 4 5 6 6 7 7 7 5 4 3 3 5 6 8 9 8 6 6 6 9 14 17 17 17 16 17 17 17 18 19 19 19 19 20 19 18 19 19 18 18 18 18 18 18 18 18 18 18 17 17 17 16 15 15 14 13 13 13 12 12 11 11 11 11 11 11 11 11 10 10 10 10 10 10 10 10 9 9 10 10 10
8 7 7 7 6 5 5 6 7 6 6 5 5 3 3 4 3 4 5 5 6 7 6 5 5 5 4 4 4 5 7 7 7 5 5 7 12 15 16 16 16 16 17 16 17 17 18 18 18 18 19 18 18 18 18 18 17 17 18 18 18 18 18 18 18 18 18 18 17 16 15 15 14 14 13 13 13 12 12 12 12 11 11 11 10 10 11 11 11 11 11 12 11 11 12 12 11
Wind_Direction
155 156 155 175 190 226 228 247 236 178 206 103 97 109 88 82 109 114 117 123 119 116 121 122 129 126 66 34 69 72 49 45 38 48 100 107 130 127 122 125 126 126 125 127 131 130 133 130 121 120 117 115 114 113 118 120 122 122 122 122 123 124 128 130 138 138 121 113 109 104 104 104 108 110 111 111 110 109 108 106 106 105 105 102 97 95 94 94 93 90 88 88 87 87 87 88 88
157 153 160 191 206 238 240 263 255 146 142 107 91 92 107 122 121 112 116 124 115 125 131 123 123 97 30 29 73 99 67 42 58 83 99 122 126 120 128 130 129 128 125 127 131 131 133 134 126 123 118 114 113 111 113 116 122 126 129 131 130 131 135 137 137 129 119 116 112 108 107 104 107 107 107 109 109 109 108 107 107 106 104 100 99 97 94 92 92 90 89 88 89 89 89 90 89
163 153 176 226 219 224 258 239 244 139 122 106 97 98 121 124 109 102 105 110 117 130 130 123 119 94 133 119 73 73 75 65 90 103 118 133 129 126 135 132 131 129 128 130 133 132 130 137 129 119 115 113 112 112 114 115 123 130 134 135 136 139 141 137 132 128 120 116 115 111 108 105 107 107 106 107 108 108 107 108 107 106 104 102 102 101 96 92 92 91 90 89 91 91 90 90 89
167 175 223 270 228 210 245 216 238 127 115 110 108 103 109 109 105 104 105 115 127 134 133 131 118 63 52 83 64 70 85 86 98 113 128 137 131 134 137 133 133 131 133 133 135 130 129 140 126 112 114 117 118 120 122 122 126 130 132 134 138 141 142 138 131 129 122 118 117 113 110 107 109 111 109 108 108 108 109 108 106 105 104 101 100 101 98 94 92 92 91 90 91 89 88 88 87
166 194 216 268 256 215 273 236 257 68 92 102 116 104 103 107 111 115 115 125 138 137 134 134 113 108 74 55 35 77 97 102 107 115 120 121 126 135 138 136 136 134 134 132 132 126 129 135 118 112 116 123 127 125 123 123 126 128 131 138 140 139 141 141 133 129 125 123 120 117 115 110 112 115 113 112 110 108 108 107 106 107 104 101 101 102 99 96 94 94 93 93 93 89 88 86 84
168 180 173 222 295 300 261 201 141 96 66 66 116 109 108 113 118 123 125 134 142 136 131 109 111 122 96 65 52 61 88 114 119 116 116 123 130 136 138 140 138 133 131 128 127 121 127 130 118 117 121 131 130 126 127 126 129 131 136 144 142 141 142 142 135 128 126 126 124 122 119 114 114 116 114 112 110 108 107 105 107 107 104 102 102 102 100 98 95 94 94 94 92 91 90 84 81
199 195 175 193 177 268 253 143 104 103 76 52 110 116 114 119 125 131 133 138 144 138 137 106 113 116 97 97 78 60 68 103 119 118 120 127 131 135 138 139 133 130 130 127 124 118 128 132 126 128 133 142 134 131 134 132 137 138 139 142 141 140 140 142 139 131 128 129 126 124 120 115 113 114 114 112 110 107 105 104 104 103 102 100 99 101 101 99 96 95 95 92 90 89 87 82 79
234 229 192 217 178 212 247 115 89 90 94 76 96 110 117 126 133 139 139 141 146 142 140 123 117 104 94 106 87 72 77 94 111 115 122 128 130 134 136 133 131 132 131 130 124 117 130 137 136 138 139 141 138 133 131 133 135 137 141 143 141 136 138 145 143 135 131 126 119 115 106 103 106 111 111 110 109 107 105 103 102 100 99 98 99 100 98 96 95 96 97 93 89 86 85 83 79
227 228 196 218 174 166 181 121 106 89 104 102 95 105 119 133 138 142 141 136 142 139 133 129 115 100 105 99 94 96 92 98 113 119 126 129 131 133 132 133 132 133 133 133 125 117 125 135 137 139 137 134 139 134 131 138 136 138 144 144 142 139 143 148 141 135 124 106 102 105 100 99 106 111 108 107 107 106 106 104 101 99 99 100 98 95 94 96 95 97 95 91 89 87 86 83 78
220 180 215 215 162 145 153 127 118 105 108 107 103 115 125 138 142 142 140 131 137 133 121 113 102 113 115 103 100 104 105 116 122 125 129 129 131 132 130 131 131 135 134 130 124 119 121 126 122 121 126 123 132 141 141 148 146 143 146 148 147 143 144 145 135 123 106 95 101 112 113 110 112 115 110 107 108 106 106 105 103 100 99 99 96 93 94 95 96 95 91 90 90 87 84 81 78
231 163 237 228 144 133 148 126 122 116 113 110 107 116 127 138 141 140 137 131 133 129 128 122 110 115 113 102 98 103 118 132 130 128 130 129 131 131 130 130 132 134 130 125 119 114 113 112 107 110 114 113 126 141 146 150 147 142 148 156 150 144 138 136 123 110 109 114 121 123 119 115 114 117 112 108 109 107 106 104 103 101 97 96 95 94 93 91 91 90 89 91 89 84 82 81 79
256 160 202 229 116 124 139 129 125 119 124 129 119 115 128 140 138 136 136 134 139 138 133 124 123 127 119 107 103 122 134 138 132 130 131 131 133 131 130 129 130 127 121 119 110 106 106 102 97 99 104 113 131 132 143 151 147 144 151 160 151 143 135 130 119 116 126 129 124 118 118 117 115 118 114 110 110 108 107 105 102 100 99 98 96 94 92 88 86 86 89 91 87 85 84 82 79
306 226 223 141 80 146 136 130 126 125 134 129 118 120 136 140 126 123 134 136 138 136 121 123 140 134 113 110 118 136 142 139 134 132 133 134 133 132 129 127 127 121 114 109 103 101 103 104 97 94 99 122 133 126 144 147 150 153 153 158 150 138 128 125 121 122 128 125 118 115 117 114 112 115 112 113 114 109 107 105 100 99 99 97 94 92 91 89 86 87 90 89 88 90 87 82 77
324 309 287 120 162 163 134 136 135 139 136 116 115 125 129 117 108 117 133 131 116 104 104 120 145 129 116 122 136 147 145 143 139 135 135 133 131 131 129 128 127 121 113 105 101 100 101 101 98 100 103 128 127 129 144 144 155 158 149 151 146 136 126 125 126 124 126 127 123 118 117 113 110 109 109 115 116 112 109 106 101 98 98 95 93 90 89 89 88 89 88 89 93 95 90 83 77
317 304 285 146 156 154 141 145 141 144 131 123 128 130 118 96 112 123 115 118 108 108 112 117 140 142 144 149 151 147 145 146 142 138 135 131 132 132 131 132 128 123 113 106 103 103 103 100 100 111 121 143 130 130 142 145 154 148 142 146 142 136 128 127 130 129 131 129 121 115 117 117 112 106 108 111 112 112 109 105 102 98 96 94 95 94 91 91 90 90 91 97 104 101 93 82 73
318 290 251 175 155 158 159 157 148 150 137 129 132 134 122 104 114 103 72 113 119 123 124 118 129 167 151 144 136 139 143 145 143 139 136 134 137 135 135 135 129 123 114 108 105 105 105 105 108 117 129 147 143 141 144 142 145 138 138 141 135 133 129 130 131 130 130 124 118 116 117 118 112 108 109 105 103 105 103 102 101 97 96 97 101 102 100 99 97 101 107 113 113 106 94 80 68
289 255 233 172 164 168 157 169 157 136 135 134 140 148 133 121 117 98 113 143 124 119 102 99 105 111 120 120 126 135 142 144 144 144 142 144 145 143 141 138 134 126 116 111 105 104 103 105 110 117 129 143 147 147 142 135 136 132 131 130 126 130 132 131 128 127 124 119 121 120 117 114 108 109 111 106 103 103 104 105 101 97 101 106 107 105 106 108 108 110 113 116 114 104 92 76 62
271 247 225 164 159 152 132 154 118 117 138 143 153 160 143 139 139 136 145 134 124 122 113 101 97 100 107 116 127 135 142 147 151 153 150 154 154 149 144 142 138 128 122 114 106 103 100 101 107 115 127 138 139 135 131 129 129 127 128 125 121 129 133 126 122 122 120 121 122 119 120 119 115 114 110 110 112 112 110 104 99 102 108 110 110 110 110 110 107 106 107 109 103 94 90 81 65
308 289 249 108 106 101 78 89 79 124 144 145 160 164 151 144 144 155 153 136 140 133 125 118 111 113 116 123 133 138 146 152 156 159 155 157 156 147 140 138 136 129 124 114 105 100 98 102 107 115 126 134 130 124 123 123 124 124 125 125 123 127 128 123 120 119 120 122 120 118 122 124 124 121 116 114 114 112 105 98 99 107 110 110 110 108 107 106 105 104 101 95 86 86 94 93 82
357 304 279 67 84 103 88 82 65 109 141 147 162 164 156 148 149 162 149 140 149 140 136 135 129 132 131 133 139 143 150 154 158 163 155 153 153 143 137 138 136 128 119 112 105 102 104 107 111 122 134 136 126 120 120 120 123 121 121 123 123 125 127 126 123 120 122 123 121 121 122 122 122 122 124 124 120 118 111 104 107 112 110 109 107 104 103 101 99 95 88 87 86 88 93 86 79
334 327 19 69 124 134 100 82 71 123 149 152 156 160 157 154 155 157 151 145 149 147 144 142 142 142 139 141 145 148 152 153 159 162 154 150 150 143 134 130 125 123 119 113 109 109 113 115 118 129 138 136 126 119 117 119 121 121 125 124 121 125 129 130 126 121 124 125 122 123 123 122 121 122 127 131 135 132 124 121 122 121 118 112 112 117 115 105 104 101 89 91 96 91 81 72 69
309 26 50 63 187 146 105 85 90 148 153 150 160 163 152 152 161 159 145 103 117 140 139 137 145 145 143 145 147 150 152 153 157 156 155 150 147 143 133 128 123 126 124 116 114 114 118 121 125 131 136 136 129 124 121 122 121 122 126 123 122 127 129 130 128 126 128 126 125 127 128 125 123 125 128 131 134 128 125 129 128 127 126 121 123 124 120 111 108 104 92 86 84 83 77 68 65
278 93 82 67 66 103 120 104 101 162 157 158 167 155 148 157 155 154 94 50 86 123 128 134 142 145 143 144 148 152 151 152 151 147 151 147 144 145 137 135 131 130 123 117 117 117 121 124 128 132 133 131 125 123 122 124 124 125 125 122 124 128 129 131 130 131 131 129 131 132 130 127 125 123 123 123 124 123 124 126 125 126 125 122 123 118 113 108 100 91 84 76 68 74 76 71 69
275 9 88 86 89 117 136 105 94 169 159 162 163 147 158 166 149 147 86 74 118 123 124 133 139 144 144 146 150 150 150 149 143 138 140 139 136 137 135 133 130 127 120 118 118 120 125 126 131 132 132 131 128 127 126 127 126 126 127 124 126 129 131 132 132 132 131 132 135 132 130 128 126 123 123 120 119 121 122 124 124 124 122 120 119 114 107 101 96 88 82 76 67 66 69 66 65
256 299 76 117 160 157 154 116 106 144 147 151 157 157 158 157 145 138 96 99 126 125 128 135 141 148 147 149 149 147 151 146 138 134 134 133 130 131 134 133 131 127 122 121 120 122 126 129 133 132 134 136 132 131 129 127 126 124 125 123 125 128 130 131 132 132 131 133 131 129 129 127 126 125 123 120 120 120 120 122 122 120 119 118 117 111 105 98 93 84 75 70 64 58 63 59 52
270 320 37 253 219 192 177 132 104 120 133 152 158 156 140 142 150 130 109 118 127 128 135 141 146 152 153 151 148 149 152 147 141 138 136 133 133 135 138 139 136 128 123 123 121 123 127 129 132 132 133 134 128 127 125 124 123 122 122 122 124 126 128 130 131 131 131 131 130 130 127 124 126 124 122 121 121 121 121 120 120 121 117 114 115 106 99 92 88 81 70 64 58 50 52 49 46
341 350 51 307 261 205 173 128 95 42 91 176 167 154 139 149 177 143 132 137 134 136 141 147 152 154 156 152 149 153 152 150 146 143 142 139 141 144 144 144 136 127 125 124 122 125 128 128 130 130 129 130 127 125 123 122 120 121 122 123 124 125 128 129 129 129 129 128 129 128 123 121 122 123 125 124 124 123 122 120 117 118 114 112 108 101 96 86 82 77 63 58 55 49 48 46 47
131 147 100 66 79 157 150 129 157 233 82 263 157 142 145 159 195 139 142 148 141 141 145 152 155 152 156 154 149 155 153 151 151 150 150 146 148 150 149 149 139 132 129 126 125 128 129 128 129 130 128 128 128 124 123 122 120 121 122 122 123 126 127 128 128 127 126 126 125 124 123 120 120 124 126 123 124 121 117 118 114 111 111 110 102 97 94 84 83 78 64 55 51 50 53 46 43
181 184 140 98 90 99 137 136 179 185 119 317 146 149 162 173 171 131 144 153 146 144 148 157 158 153 157 156 152 156 154 154 158 158 152 146 148 150 149 148 142 134 129 128 131 131 129 130 131 131 131 131 130 128 126 124 122 123 123 123 125 127 127 126 126 124 124 125 125 126 126 123 121 123 120 116 119 117 113 111 109 107 104 104 101 95 93 87 87 85 76 64 55 53 57 46 38
200 211 211 127 105 90 129 139 165 153 112 326 218 175 164 173 160 140 155 159 154 154 152 159 162 157 158 158 158 157 156 160 163 160 153 149 149 149 147 147 144 133 131 134 135 133 131 133 134 134 135 135 133 131 128 127 125 126 125 127 129 128 127 127 125 125 125 127 128 129 128 125 122 119 115 111 111 116 116 109 103 99 95 96 98 95 97 96 89 88 84 76 67 58 57 46 42
194 98 261 186 129 95 127 147 168 154 152 294 230 178 155 172 158 148 166 169 165 162 156 162 165 162 160 159 164 161 160 165 163 157 154 152 151 151 147 147 147 136 137 140 137 136 135 137 137 138 141 139 138 136 133 132 130 130 131 132 133 130 130 130 128 129 129 130 132 131 129 126 120 117 114 108 107 116 117 110 100 88 83 84 88 91 93 91 89 89 77 70 66 55 55 55 52
185 75 263 200 127 112 133 156 179 160 158 213 220 189 140 158 155 153 171 178 177 170 161 164 166 166 162 161 168 165 161 162 162 157 153 155 152 151 148 150 151 143 141 141 139 140 138 140 141 142 145 143 142 139 136 136 135 136 135 135 136 134 135 134 132 133 133 133 134 134 131 126 124 120 115 109 108 112 111 105 97 85 80 79 83 86 87 90 92 93 71 49 52 45 45 62 61
190 214 245 151 133 148 144 154 178 157 157 184 220 223 119 135 150 158 171 181 186 179 167 166 167 168 165 164 170 167 162 160 165 161 155 158 154 150 151 152 154 149 145 142 144 145 141 143 146 145 148 147 144 142 140 139 140 139 138 139 140 140 139 138 136 135 136 136 135 136 135 130 130 126 117 111 100 103 101 95 95 91 84 85 83 80 85 85 78 87 71 45 42 32 33 59 58
200 225 123 129 160 150 152 164 170 167 174 180 186 197 77 123 150 161 172 183 191 185 173 172 170 169 169 170 171 169 166 163 167 165 161 161 154 152 151 152 155 153 149 147 147 148 145 146 148 146 149 150 146 145 143 142 142 139 140 142 141 142 142 141 140 137 139 139 136 138 138 135 136 133 124 112 85 90 97 92 92 91 89 86 80 82 85 76 69 74 67 43 31 21 24 44 42
296 299 76 188 164 129 141 154 166 175 180 175 168 162 111 145 157 167 176 183 194 189 176 176 173 171 174 177 175 171 170 169 169 167 164 161 157 155 152 153 158 157 154 151 148 149 148 147 147 147 151 151 149 148 146 146 145 142 144 144 143 146 144 143 144 142 143 141 138 140 140 139 142 136 127 113 90 94 107 103 98 97 93 82 72 80 85 77 67 61 59 50 33 26 28 33 33
304 325 7 110 99 102 138 138 154 164 162 169 168 171 195 178 168 173 177 185 197 190 179 180 176 176 181 183 180 174 177 173 166 166 164 161 160 156 154 157 159 159 157 154 152 152 152 152 151 152 155 154 151 153 153 152 152 149 151 151 151 152 148 148 150 149 147 141 139 144 146 146 145 135 120 111 98 96 109 110 109 104 90 82 74 76 79 72 58 51 54 50 39 43 63 63 40
334 113 66 97 112 123 149 135 143 152 151 165 160 171 205 201 184 178 174 184 198 192 184 184 182 184 187 187 181 175 181 176 164 166 164 162 164 160 157 161 161 160 160 159 160 159 158 158 156 158 160 158 157 161 162 161 159 158 159 158 157 156 154 155 156 155 152 144 140 145 150 148 143 135 119 111 105 102 109 107 108 104 93 87 76 71 73 62 47 42 48 53 57 62 72 119 59
317 171 140 137 129 129 133 135 144 153 141 143 160 185 209 212 201 186 177 187 200 196 191 187 185 189 190 188 184 177 179 177 166 165 167 167 168 167 164 165 166 165 164 166 167 165 164 164 162 163 164 164 165 166 167 167 164 163 161 161 158 155 159 163 163 163 156 146 147 149 149 148 143 138 125 117 119 122 120 114 113 104 95 89 78 77 75 61 39 35 41 51 68 78 75 57 45
295 232 144 67 94 113 133 143 146 161 146 144 177 191 212 214 204 196 192 195 201 200 199 194 189 191 192 190 185 179 176 176 173 168 172 174 172 173 172 172 173 170 170 171 170 168 169 169 167 168 169 170 170 169 171 171 168 165 161 163 161 156 163 167 159 160 158 151 156 159 155 154 154 155 149 140 135 133 123 118 124 113 96 87 75 66 65 59 45 40 44 47 44 111 132 86 42
263 289 87 142 178 148 151 159 150 157 156 155 178 188 213 212 200 203 208 208 204 202 206 205 200 197 196 193 186 182 178 177 181 177 176 177 174 177 178 177 178 175 174 175 174 173 173 173 172 171 172 173 174 173 174 172 169 166 160 162 165 158 164 167 157 161 168 164 165 170 171 171 173 173 168 162 148 127 116 115 120 112 97 84 67 55 61 64 52 45 52 50 27 31 116 99 75
209 281 320 171 211 130 115 175 159 144 152 155 160 190 233 212 200 200 207 212 208 202 205 207 208 204 203 200 189 187 185 181 186 186 180 178 177 179 180 181 182 179 179 179 179 179 177 176 175 174 174 175 176 175 175 171 170 171 164 163 169 166 167 175 178 178 178 179 181 179 178 182 186 185 181 173 154 128 119 117 120 124 116 99 71 60 61 57 51 49 55 50 32 32 28 30 68
170 57 349 346 312 15 122 180 188 172 187 165 159 188 231 206 203 199 190 205 207 201 203 204 204 202 205 207 196 192 192 187 191 191 184 181 180 180 180 184 187 183 182 182 183 182 180 177 176 177 177 178 178 176 177 175 174 178 176 176 180 182 182 184 189 187 180 183 184 171 168 177 184 187 186 178 163 145 132 129 140 149 137 128 109 76 72 78 77 64 57 46 34 32 2 343 38
176 8 345 338 303 284 151 189 210 211 166 156 176 208 227 203 216 205 187 201 206 200 206 207 204 201 202 207 202 199 197 192 193 193 190 187 183 181 183 188 190 187 183 181 183 183 181 179 178 179 179 180 180 177 179 180 182 185 187 189 189 188 188 185 189 188 177 177 173 160 162 169 175 187 184 177 175 167 155 155 168 175 160 158 144 132 143 144 84 66 63 53 31 25 6 341 329
179 326 336 333 302 269 197 215 228 205 126 162 209 228 244 237 221 202 189 198 205 203 210 213 210 206 202 204 205 203 201 198 194 193 197 195 188 185 187 190 190 189 183 180 182 182 181 181 180 181 181 181 181 180 181 184 187 190 192 196 193 191 188 179 183 188 178 177 175 171 174 167 167 184 189 186 191 194 197 198 198 203 191 174 167 174 183 141 93 81 90 96 42 2 5 344 336
124 76 354 331 305 274 223 242 249 211 200 208 193 209 236 195 177 187 185 194 203 203 208 210 212 211 204 202 204 204 202 203 201 195 198 199 197 194 191 192 192 189 184 181 181 180 180 181 181 183 184 184 184 182 184 187 190 192 193 196 193 190 187 179 182 187 186 192 194 192 193 187 183 190 197 201 206 210 216 217 214 211 207 204 202 193 177 161 159 158 178 185 189 228 221 265 331
123 116 102 281 285 295 237 256 269 245 249 237 173 190 237 160 153 176 183 197 208 208 209 207 209 213 210 204 202 203 200 203 206 201 198 200 202 200 195 195 195 190 186 183 181 179 181 182 183 185 187 187 187 186 187 189 191 193 195 196 194 190 189 188 188 190 192 198 201 202 206 211 210 204 200 202 206 212 217 219 216 211 211 214 211 204 196 191 195 198 203 209 214 231 224 225 248
122 126 217 256 253 233 244 250 281 251 237 204 161 188 237 232 138 156 173 198 206 204 210 207 207 213 214 210 203 202 199 198 204 204 200 201 203 201 198 198 196 191 187 186 184 182 182 184 185 188 190 190 190 190 190 190 192 196 198 197 197 195 195 198 199 198 198 200 206 208 210 215 218 216 208 201 203 206 209 214 216 216 217 217 218 220 219 213 211 208 205 217 232 246 242 232 245
127 114 48 280 237 206 216 193 223 246 218 111 137 183 227 254 104 128 162 180 179 186 200 202 206 211 213 212 206 203 201 197 200 203 202 201 201 200 199 199 196 192 189 188 188 186 184 187 188 189 193 194 193 193 193 194 195 198 200 200 202 203 204 206 207 208 207 207 212 212 211 216 220 223 219 211 209 204 202 208 215 221 223 223 229 230 230 235 236 226 214 230 237 236 241 241 244
142 126 120 286 247 210 207 196 201 229 176 109 142 171 215 250 100 106 137 140 185 232 224 209 207 208 209 210 207 203 202 199 197 200 202 200 197 196 197 196 193 193 193 192 192 190 187 189 190 191 194 195 196 197 197 197 199 200 202 203 204 206 210 213 215 217 216 215 218 217 215 218 221 224 223 219 218 211 205 208 212 217 222 225 234 239 239 242 246 247 241 241 242 233 235 241 242
170 153 138 204 252 231 226 221 209 205 162 133 146 173 217 210 112 85 70 56 25 350 300 247 221 210 206 208 208 203 201 200 197 197 200 198 192 192 193 190 189 193 195 194 194 192 190 190 192 195 196 196 197 199 200 201 202 203 204 205 206 207 209 213 218 222 221 218 221 225 226 226 222 221 222 220 221 221 216 213 212 216 219 218 225 236 239 237 239 249 254 254 256 246 241 249 250
183 159 153 211 258 275 268 260 249 237 161 132 148 193 215 156 117 90 73 64 42 21 352 286 231 211 206 208 208 204 200 200 198 196 197 195 190 190 189 188 190 194 195 196 195 193 193 192 192 195 197 197 198 200 202 204 205 205 206 207 208 209 210 212 216 221 222 221 224 229 234 236 232 224 223 221 221 223 222 218 217 219 218 216 221 228 232 231 230 240 250 256 261 253 247 255 259
179 167 177 213 251 269 284 300 316 293 264 149 168 214 78 111 137 111 63 48 46 28 21 20 199 195 201 213 210 203 199 199 199 196 194 193 190 189 189 189 192 194 194 195 195 193 195 194 193 196 198 199 200 201 203 205 206 208 208 210 210 210 211 212 213 216 219 222 227 232 233 234 235 231 226 225 222 222 223 222 222 222 218 219 222 223 226 225 221 230 238 241 250 253 249 254 259
157 187 198 184 231 277 292 290 270 274 267 186 172 197 130 132 159 128 34 31 43 25 23 38 121 175 188 207 209 204 199 199 200 196 192 192 192 190 191 192 193 193 193 194 194 194 195 195 196 197 198 200 202 202 204 205 207 209 211 212 213 213 213 214 215 216 218 221 224 229 232 230 230 231 228 227 224 223 223 223 224 223 218 220 223 222 225 223 219 228 231 231 240 247 247 249 254
169 201 197 160 199 273 277 270 262 261 248 193 174 201 167 153 173 130 18 21 28 19 22 39 80 162 184 193 199 203 202 202 200 194 190 190 192 192 192 195 196 194 193 193 194 195 196 197 199 199 199 202 204 203 205 206 207 210 212 214 214 215 217 218 219 218 219 220 221 223 228 228 228 229 229 229 227 224 223 222 224 225 221 222 224 223 224 221 221 229 230 229 234 234 238 246 249
216 199 175 170 200 228 225 249 270 262 255 225 191 205 183 115 92 73 20 17 17 11 13 25 64 141 177 182 187 194 199 206 201 194 192 190 192 193 193 196 198 196 195 195 195 195 196 199 202 203 203 205 206 205 206 207 208 210 212 214 215 216 218 220 221 221 220 221 221 221 223 225 226 227 226 229 231 229 226 222 223 225 225 225 223 223 224 221 223 229 230 231 230 224 231 244 247
226 196 181 192 203 213 220 239 255 265 276 273 216 193 141 45 44 43 25 17 12 7 6 14 47 106 163 169 176 178 182 200 204 200 197 192 195 196 195 197 198 196 196 197 196 195 198 201 201 205 207 205 206 207 207 208 211 213 214 214 215 216 218 220 221 221 221 221 221 222 224 224 224 226 223 223 228 231 231 227 226 226 225 226 225 225 225 222 225 229 231 236 232 222 228 240 245
208 198 185 192 183 177 219 230 229 237 250 262 243 202 103 55 37 30 20 11 13 12 2 8 44 75 121 146 166 168 172 183 188 199 203 198 202 202 199 199 197 196 198 198 197 197 199 201 200 204 206 205 206 207 209 210 212 215 216 216 217 216 218 221 222 222 222 222 222 223 226 226 224 224 223 222 224 226 228 230 232 233 231 230 226 226 228 226 227 228 232 239 237 228 232 240 243
213 214 196 199 194 188 210 223 227 230 229 251 258 222 106 66 27 19 17 9 21 23 0 4 47 61 79 111 138 155 170 176 174 197 222 215 214 211 204 198 194 196 198 197 197 196 197 200 199 201 202 204 206 206 207 210 213 217 220 220 221 220 219 221 223 222 222 222 223 223 224 226 226 224 222 224 224 224 224 226 231 234 235 236 230 227 232 232 231 231 233 237 237 232 234 239 241